START_TIME,STEP,MOV.,AL01,t_acc.,AL02,t_acc.,E37,t_acc.,H21,t_acc.
1979-07-06 03:00:35.000 ,1,0,9.,24.0,1.,24.0,0.,24.0,0.,24.0
1979-07-06 03:00:59.000 ,2,1,3.,24.0,0.,24.0,0.,24.0,0.,24.0
1979-07-06 03:01:23.000 ,2,0,9.,24.0,2.,24.0,0.,24.0,0.,24.0
1979-07-06 03:01:47.000 ,3,1,3.,24.0,3.,24.0,0.,24.0,0.,24.0
1979-07-06 03:02:11.000 ,3,0,8.,24.0,3.,24.0,0.,24.0,0.,24.0
1979-07-06 03:02:35.000 ,4,1,12.,24.0,4.,24.0,0.,24.0,0.,24.0
1979-07-06 03:02:59.000 ,4,0,20.,24.0,3.,24.0,0.,24.0,0.,24.0
1979-07-06 03:03:23.000 ,5,1,16.,24.0,2.,24.0,0.,24.0,0.,24.0
1979-07-06 03:03:47.000 ,5,0,15.,24.0,2.,24.0,0.,24.0,0.,24.0
1979-07-06 03:04:11.000 ,6,1,13.,24.0,3.,24.0,0.,24.0,0.,24.0
1979-07-06 03:04:35.000 ,6,0,15.,24.0,0.,24.0,0.,24.0,0.,24.0
1979-07-06 03:04:59.000 ,7,1,14.,24.0,0.,24.0,0.,24.0,0.,24.0
1979-07-06 03:05:23.000 ,7,0,31.,24.0,0.,24.0,0.,24.0,0.,24.0
1979-07-06 03:05:47.000 ,7,1,37.,24.0,0.,24.0,0.,24.0,0.,24.0
1979-07-06 03:06:11.000 ,7,0,22.,24.0,0.,24.0,0.,24.0,0.,24.0
1979-07-06 03:06:35.000 ,6,1,25.,24.0,1.,24.0,0.,24.0,0.,24.0
1979-07-06 03:06:59.000 ,6,0,10.,24.0,0.,24.0,0.,24.0,0.,24.0
1979-07-06 03:07:23.000 ,5,1,11.,24.0,2.,24.0,0.,24.0,0.,24.0
1979-07-06 03:07:47.000 ,5,0,15.,24.0,2.,24.0,0.,24.0,0.,24.0
1979-07-06 03:08:11.000 ,4,1,13.,24.0,0.,24.0,0.,24.0,0.,24.0
1979-07-06 03:08:35.000 ,4,0,13.,24.0,3.,24.0,0.,24.0,0.,24.0
1979-07-06 03:08:59.000 ,3,1,8.,24.0,2.,24.0,0.,24.0,0.,24.0
1979-07-06 03:09:23.000 ,3,0,1.,24.0,1.,24.0,0.,24.0,0.,24.0
1979-07-06 03:09:47.000 ,2,1,5.,24.0,0.,24.0,0.,24.0,0.,24.0
1979-07-06 03:10:11.000 ,2,0,3.,24.0,0.,24.0,0.,24.0,0.,24.0
1979-07-06 03:10:35.000 ,1,1,2.,24.0,1.,24.0,0.,24.0,0.,24.0
1979-07-06 03:10:59.000 ,1,0,1.,24.0,1.,24.0,0.,24.0,0.,24.0
1979-07-06 03:11:23.000 ,0,1,0.,24.0,0.,24.0,0.,24.0,0.,24.0
1979-07-06 03:11:47.000 ,0,0,1.,24.0,0.,24.0,0.,24.0,0.,24.0
1979-07-06 03:12:11.000 ,0,1,1.,24.0,1.,24.0,0.,24.0,0.,24.0
1979-07-06 03:12:35.000 ,0,0,1.,24.0,1.,24.0,0.,24.0,0.,24.0
1979-07-06 03:12:59.000 ,1,1,1.,24.0,2.,24.0,0.,24.0,0.,24.0
1979-07-06 03:13:23.000 ,1,0,1.,24.0,1.,24.0,0.,24.0,0.,24.0
1979-07-06 03:13:47.000 ,2,1,3.,24.0,0.,24.0,0.,24.0,0.,24.0
1979-07-06 03:14:11.000 ,2,0,2.,24.0,0.,24.0,0.,24.0,0.,24.0
1979-07-06 03:14:35.000 ,3,1,2.,24.0,0.,24.0,0.,24.0,0.,24.0
1979-07-06 03:14:59.000 ,3,0,2.,24.0,2.,24.0,0.,24.0,0.,24.0
1979-07-06 03:15:23.000 ,4,1,2.,24.0,1.,24.0,0.,24.0,0.,24.0
1979-07-06 03:15:47.000 ,4,0,10.,24.0,0.,24.0,0.,24.0,0.,24.0
1979-07-06 03:16:11.000 ,5,1,10.,24.0,3.,24.0,0.,24.0,0.,24.0
1979-07-06 03:16:35.000 ,5,0,18.,24.0,1.,24.0,0.,24.0,0.,24.0
1979-07-06 03:16:59.000 ,6,1,10.,24.0,0.,24.0,0.,24.0,0.,24.0
1979-07-06 03:17:23.000 ,6,0,12.,24.0,4.,24.0,0.,24.0,0.,24.0
1979-07-06 03:17:47.000 ,7,1,24.,24.0,0.,24.0,0.,24.0,0.,24.0
1979-07-06 03:18:11.000 ,7,0,35.,24.0,0.,24.0,0.,24.0,0.,24.0
1979-07-06 03:18:35.000 ,7,1,29.,24.0,0.,24.0,0.,24.0,0.,24.0
1979-07-06 03:18:59.000 ,7,0,26.,24.0,0.,24.0,0.,24.0,0.,24.0
1979-07-06 03:19:23.000 ,6,1,29.,24.0,1.,24.0,0.,24.0,0.,24.0
1979-07-06 03:19:47.000 ,6,0,16.,24.0,5.,24.0,0.,24.0,0.,24.0
1979-07-06 03:20:11.000 ,5,1,12.,24.0,1.,24.0,0.,24.0,0.,24.0
1979-07-06 03:20:35.000 ,5,0,12.,24.0,4.,24.0,0.,24.0,0.,24.0
1979-07-06 03:20:59.000 ,4,1,13.,24.0,1.,24.0,0.,24.0,0.,24.0
1979-07-06 03:21:23.000 ,4,0,15.,24.0,2.,24.0,0.,24.0,0.,24.0
1979-07-06 03:21:47.000 ,3,1,15.,24.0,0.,24.0,0.,24.0,0.,24.0
1979-07-06 03:22:11.000 ,3,0,5.,24.0,1.,24.0,0.,24.0,0.,24.0
1979-07-06 03:22:35.000 ,2,1,5.,24.0,1.,24.0,0.,24.0,0.,24.0
1979-07-06 03:22:59.000 ,2,0,3.,24.0,0.,24.0,0.,24.0,0.,24.0
1979-07-06 03:23:23.000 ,1,1,4.,24.0,1.,24.0,0.,24.0,0.,24.0
1979-07-06 03:23:47.000 ,1,0,4.,24.0,1.,24.0,0.,24.0,0.,24.0
1979-07-06 03:24:11.000 ,0,1,4.,24.0,0.,24.0,0.,24.0,0.,24.0
1979-07-06 03:24:35.000 ,0,0,3.,24.0,0.,24.0,0.,24.0,0.,24.0
1979-07-06 03:24:59.000 ,0,1,2.,24.0,1.,24.0,0.,24.0,0.,24.0
1979-07-06 03:25:23.000 ,0,0,4.,24.0,1.,24.0,0.,24.0,0.,24.0
1979-07-06 03:25:47.000 ,1,1,5.,24.0,1.,24.0,0.,24.0,0.,24.0
1979-07-06 03:26:11.000 ,1,0,2.,24.0,0.,24.0,0.,24.0,0.,24.0
1979-07-06 03:26:35.000 ,2,1,3.,24.0,1.,24.0,0.,24.0,0.,24.0
1979-07-06 03:26:59.000 ,2,0,6.,24.0,0.,24.0,0.,24.0,0.,24.0
1979-07-06 03:27:23.000 ,3,1,1.,24.0,0.,24.0,0.,24.0,0.,24.0
1979-07-06 03:27:47.000 ,3,0,5.,24.0,1.,24.0,0.,24.0,0.,24.0
1979-07-06 03:28:11.000 ,4,1,10.,24.0,0.,24.0,0.,24.0,0.,24.0
1979-07-06 03:28:35.000 ,4,0,3.,24.0,3.,24.0,0.,24.0,0.,24.0
1979-07-06 03:28:59.000 ,0,0,,0,,0,,0,,0
1979-07-06 03:29:23.000 ,0,0,,0,,0,,0,,0
1979-07-06 03:29:47.000 ,0,0,17.,24.0,0.,24.0,0.,24.0,0.,24.0
1979-07-06 03:30:11.000 ,0,0,14.,24.0,5.,24.0,0.,24.0,0.,24.0
1979-07-06 03:30:35.000 ,7,0,21.,24.0,0.,24.0,0.,24.0,0.,24.0
1979-07-06 03:30:59.000 ,7,0,26.,24.0,1.,24.0,0.,24.0,0.,24.0
1979-07-06 03:31:23.000 ,5,1,31.,24.0,1.,24.0,0.,24.0,0.,24.0
1979-07-06 03:31:47.000 ,1,1,3.,24.0,0.,24.0,0.,24.0,0.,24.0
1979-07-06 03:32:11.000 ,2,1,2.,24.0,1.,24.0,0.,24.0,0.,24.0
1979-07-06 03:32:35.000 ,6,1,10.,24.0,0.,24.0,0.,24.0,0.,24.0
1979-07-06 03:32:59.000 ,5,1,18.,24.0,1.,24.0,0.,24.0,0.,24.0
1979-07-06 03:33:23.000 ,1,1,5.,24.0,0.,24.0,0.,24.0,0.,24.0
1979-07-06 03:33:47.000 ,2,1,4.,24.0,0.,24.0,0.,24.0,0.,24.0
1979-07-06 03:34:11.000 ,6,1,11.,24.0,1.,24.0,0.,24.0,0.,24.0
1979-07-06 03:34:35.000 ,5,1,29.,24.0,0.,24.0,0.,24.0,0.,24.0
1979-07-06 03:34:59.000 ,1,1,9.,24.0,0.,24.0,0.,24.0,0.,24.0
1979-07-06 03:35:23.000 ,2,1,2.,24.0,0.,24.0,0.,24.0,0.,24.0
1979-07-06 03:35:47.000 ,6,1,10.,24.0,1.,24.0,0.,24.0,0.,24.0
1979-07-06 03:36:11.000 ,5,1,20.,24.0,1.,24.0,0.,24.0,0.,24.0
1979-07-06 03:36:35.000 ,1,1,6.,24.0,0.,24.0,0.,24.0,0.,24.0
1979-07-06 03:36:59.000 ,2,1,3.,24.0,1.,24.0,0.,24.0,0.,24.0
1979-07-06 03:37:23.000 ,6,1,16.,24.0,2.,24.0,0.,24.0,0.,24.0
1979-07-06 03:37:47.000 ,5,1,26.,24.0,2.,24.0,0.,24.0,0.,24.0
1979-07-06 03:38:11.000 ,1,1,14.,24.0,1.,24.0,0.,24.0,0.,24.0
1979-07-06 03:38:35.000 ,2,1,5.,24.0,0.,24.0,0.,24.0,0.,24.0
1979-07-06 03:38:59.000 ,6,1,14.,24.0,3.,24.0,0.,24.0,0.,24.0
1979-07-06 03:39:23.000 ,5,1,20.,24.0,1.,24.0,0.,24.0,0.,24.0
1979-07-06 03:39:47.000 ,1,1,5.,24.0,2.,24.0,0.,24.0,0.,24.0
1979-07-06 03:40:11.000 ,2,1,5.,24.0,0.,24.0,0.,24.0,0.,24.0
1979-07-06 03:40:35.000 ,6,1,10.,24.0,2.,24.0,0.,24.0,0.,24.0
1979-07-06 03:40:59.000 ,5,1,24.,24.0,0.,24.0,0.,24.0,0.,24.0
1979-07-06 03:41:23.000 ,1,1,2.,24.0,1.,24.0,0.,24.0,0.,24.0
1979-07-06 03:41:47.000 ,0,0,2.,24.0,2.,24.0,0.,24.0,0.,24.0
1979-07-06 03:42:11.000 ,0,0,3.,24.0,2.,24.0,0.,24.0,0.,24.0
1979-07-06 03:42:35.000 ,5,1,19.,24.0,2.,24.0,0.,24.0,0.,24.0
1979-07-06 03:42:59.000 ,5,0,12.,24.0,2.,24.0,0.,24.0,0.,24.0
1979-07-06 03:43:23.000 ,4,1,12.,24.0,2.,24.0,0.,24.0,0.,24.0
1979-07-06 03:43:47.000 ,4,0,5.,24.0,1.,24.0,0.,24.0,0.,24.0
1979-07-06 03:44:11.000 ,3,1,8.,24.0,0.,24.0,0.,24.0,0.,24.0
1979-07-06 03:44:35.000 ,3,0,6.,24.0,2.,24.0,0.,24.0,0.,24.0
1979-07-06 03:44:59.000 ,2,1,7.,24.0,3.,24.0,0.,24.0,0.,24.0
1979-07-06 03:45:23.000 ,2,0,2.,24.0,1.,24.0,0.,24.0,0.,24.0
1979-07-06 03:45:47.000 ,1,1,5.,24.0,0.,24.0,0.,24.0,0.,24.0
1979-07-06 03:46:11.000 ,1,0,0.,24.0,0.,24.0,0.,24.0,0.,24.0
1979-07-06 03:46:35.000 ,0,1,3.,24.0,0.,24.0,0.,24.0,0.,24.0
1979-07-06 03:46:59.000 ,0,0,4.,24.0,1.,24.0,0.,24.0,0.,24.0
1979-07-06 03:47:23.000 ,0,1,3.,24.0,0.,24.0,0.,24.0,0.,24.0
1979-07-06 03:47:47.000 ,0,0,6.,24.0,1.,24.0,0.,24.0,0.,24.0
1979-07-06 03:48:11.000 ,1,1,5.,24.0,1.,24.0,0.,24.0,0.,24.0
1979-07-06 03:48:35.000 ,1,0,5.,24.0,0.,24.0,0.,24.0,0.,24.0
1979-07-06 03:48:59.000 ,2,1,3.,24.0,0.,24.0,0.,24.0,0.,24.0
1979-07-06 03:49:23.000 ,2,0,6.,24.0,1.,24.0,0.,24.0,0.,24.0
1979-07-06 03:49:47.000 ,3,1,2.,24.0,1.,24.0,0.,24.0,0.,24.0
1979-07-06 03:50:11.000 ,3,0,11.,24.0,1.,24.0,0.,24.0,0.,24.0
1979-07-06 03:50:35.000 ,4,1,11.,24.0,1.,24.0,0.,24.0,0.,24.0
1979-07-06 03:50:59.000 ,4,0,16.,24.0,2.,24.0,0.,24.0,0.,24.0
1979-07-06 03:51:23.000 ,5,1,17.,24.0,2.,24.0,0.,24.0,0.,24.0
1979-07-06 03:51:47.000 ,5,0,14.,24.0,1.,24.0,0.,24.0,0.,24.0
1979-07-06 03:52:11.000 ,6,1,16.,24.0,3.,24.0,0.,24.0,0.,24.0
1979-07-06 03:52:35.000 ,6,0,14.,24.0,0.,24.0,0.,24.0,0.,24.0
1979-07-06 03:52:59.000 ,7,1,12.,24.0,0.,24.0,0.,24.0,0.,24.0
1979-07-06 03:53:23.000 ,7,0,34.,24.0,0.,24.0,0.,24.0,0.,24.0
1979-07-06 03:53:47.000 ,7,1,40.,24.0,0.,24.0,0.,24.0,0.,24.0
1979-07-06 03:54:11.000 ,7,0,35.,24.0,0.,24.0,0.,24.0,0.,24.0
1979-07-06 03:54:35.000 ,6,1,25.,24.0,0.,24.0,0.,24.0,0.,24.0
1979-07-06 03:54:59.000 ,6,0,12.,24.0,0.,24.0,0.,24.0,0.,24.0
1979-07-06 03:55:23.000 ,5,1,9.,24.0,1.,24.0,0.,24.0,0.,24.0
1979-07-06 03:55:47.000 ,5,0,9.,24.0,2.,24.0,0.,24.0,0.,24.0
1979-07-06 03:56:11.000 ,4,1,9.,24.0,0.,24.0,0.,24.0,0.,24.0
1979-07-06 03:56:35.000 ,4,0,13.,24.0,5.,24.0,0.,24.0,0.,24.0
1979-07-06 03:56:59.000 ,3,1,4.,24.0,2.,24.0,0.,24.0,0.,24.0
1979-07-06 03:57:23.000 ,3,0,3.,24.0,0.,24.0,0.,24.0,0.,24.0
1979-07-06 03:57:47.000 ,2,1,7.,24.0,2.,24.0,0.,24.0,0.,24.0
1979-07-06 03:58:11.000 ,2,0,5.,24.0,0.,24.0,0.,24.0,0.,24.0
1979-07-06 03:58:35.000 ,1,1,2.,24.0,2.,24.0,0.,24.0,0.,24.0
1979-07-06 03:58:59.000 ,1,0,2.,24.0,1.,24.0,0.,24.0,0.,24.0
1979-07-06 03:59:23.000 ,0,1,4.,24.0,1.,24.0,0.,24.0,0.,24.0
1979-07-06 03:59:47.000 ,0,0,3.,24.0,0.,24.0,0.,24.0,0.,24.0
1979-07-06 04:00:11.000 ,0,1,2.,24.0,0.,24.0,0.,24.0,0.,24.0
1979-07-06 04:00:35.000 ,0,0,0.,24.0,1.,24.0,0.,24.0,0.,24.0
1979-07-06 04:00:59.000 ,1,1,1.,24.0,0.,24.0,0.,24.0,0.,24.0
1979-07-06 04:01:23.000 ,1,0,4.,24.0,1.,24.0,0.,24.0,0.,24.0
1979-07-06 04:01:47.000 ,2,1,3.,24.0,0.,24.0,0.,24.0,0.,24.0
1979-07-06 04:02:11.000 ,2,0,1.,24.0,0.,24.0,0.,24.0,0.,24.0
1979-07-06 04:02:35.000 ,3,1,4.,24.0,0.,24.0,0.,24.0,0.,24.0
1979-07-06 04:02:59.000 ,3,0,5.,24.0,0.,24.0,0.,24.0,0.,24.0
1979-07-06 04:03:23.000 ,4,1,6.,24.0,0.,24.0,0.,24.0,0.,24.0
1979-07-06 04:03:47.000 ,4,0,2.,24.0,0.,24.0,0.,24.0,0.,24.0
1979-07-06 04:04:11.000 ,5,1,5.,24.0,0.,24.0,0.,24.0,0.,24.0
1979-07-06 04:04:35.000 ,5,0,14.,24.0,1.,24.0,0.,24.0,0.,24.0
1979-07-06 04:04:59.000 ,6,1,11.,24.0,3.,24.0,0.,24.0,0.,24.0
1979-07-06 04:05:23.000 ,6,0,11.,24.0,1.,24.0,0.,24.0,0.,24.0
1979-07-06 04:05:47.000 ,7,1,13.,24.0,1.,24.0,0.,24.0,0.,24.0
1979-07-06 04:06:11.000 ,7,0,30.,24.0,0.,24.0,0.,24.0,0.,24.0
1979-07-06 04:06:35.000 ,7,1,34.,24.0,0.,24.0,0.,24.0,0.,24.0
1979-07-06 04:06:59.000 ,7,0,36.,24.0,0.,24.0,0.,24.0,0.,24.0
1979-07-06 04:07:23.000 ,6,1,31.,24.0,1.,24.0,0.,24.0,0.,24.0
1979-07-06 04:07:47.000 ,6,0,17.,24.0,2.,24.0,0.,24.0,0.,24.0
1979-07-06 04:08:11.000 ,5,1,17.,24.0,2.,24.0,0.,24.0,0.,24.0
1979-07-06 04:08:35.000 ,5,0,18.,24.0,2.,24.0,0.,24.0,0.,24.0
1979-07-06 04:08:59.000 ,4,1,10.,24.0,0.,24.0,0.,24.0,0.,24.0
1979-07-06 04:09:23.000 ,4,0,11.,24.0,1.,24.0,0.,24.0,0.,24.0
1979-07-06 04:09:47.000 ,3,1,11.,24.0,2.,24.0,0.,24.0,0.,24.0
1979-07-06 04:10:11.000 ,3,0,3.,24.0,0.,24.0,0.,24.0,0.,24.0
1979-07-06 04:10:35.000 ,2,1,4.,24.0,0.,24.0,0.,24.0,0.,24.0
1979-07-06 04:10:59.000 ,2,0,1.,24.0,0.,24.0,0.,24.0,0.,24.0
1979-07-06 04:11:23.000 ,1,1,0.,24.0,1.,24.0,0.,24.0,0.,24.0
1979-07-06 04:11:47.000 ,1,0,2.,24.0,0.,24.0,0.,24.0,0.,24.0
1979-07-06 04:12:11.000 ,0,1,0.,24.0,0.,24.0,0.,24.0,0.,24.0
1979-07-06 04:12:35.000 ,0,0,1.,24.0,0.,24.0,0.,24.0,0.,24.0
1979-07-06 04:12:59.000 ,0,1,4.,24.0,1.,24.0,0.,24.0,0.,24.0
1979-07-06 04:13:23.000 ,0,0,4.,24.0,1.,24.0,0.,24.0,0.,24.0
1979-07-06 04:13:47.000 ,1,1,3.,24.0,1.,24.0,0.,24.0,0.,24.0
1979-07-06 04:14:11.000 ,1,0,4.,24.0,1.,24.0,0.,24.0,0.,24.0
1979-07-06 04:14:35.000 ,2,1,4.,24.0,0.,24.0,0.,24.0,0.,24.0
1979-07-06 04:14:59.000 ,2,0,0.,24.0,0.,24.0,0.,24.0,0.,24.0
1979-07-06 04:15:23.000 ,3,1,2.,24.0,3.,24.0,0.,24.0,0.,24.0
1979-07-06 04:15:47.000 ,3,0,5.,24.0,1.,24.0,0.,24.0,0.,24.0
1979-07-06 04:16:11.000 ,4,1,6.,24.0,2.,24.0,0.,24.0,0.,24.0
1979-07-06 04:16:35.000 ,4,0,10.,24.0,0.,24.0,0.,24.0,0.,24.0
1979-07-06 04:16:59.000 ,5,1,6.,24.0,1.,24.0,0.,24.0,0.,24.0
1979-07-06 04:17:23.000 ,5,0,10.,24.0,1.,24.0,0.,24.0,0.,24.0
1979-07-06 04:17:47.000 ,6,1,7.,24.0,1.,24.0,0.,24.0,0.,24.0
1979-07-06 04:18:11.000 ,6,0,7.,24.0,3.,24.0,0.,24.0,0.,24.0
1979-07-06 04:18:35.000 ,7,0,12.,24.0,3.,24.0,0.,24.0,0.,24.0
1979-07-06 04:18:59.000 ,7,0,29.,24.0,0.,24.0,0.,24.0,0.,24.0
1979-07-06 04:19:23.000 ,5,1,32.,24.0,2.,24.0,0.,24.0,0.,24.0
1979-07-06 04:19:47.000 ,1,1,5.,24.0,2.,24.0,0.,24.0,0.,24.0
1979-07-06 04:20:11.000 ,2,1,0.,24.0,0.,24.0,0.,24.0,0.,24.0
1979-07-06 04:20:35.000 ,6,1,7.,24.0,2.,24.0,0.,24.0,0.,24.0
1979-07-06 04:20:59.000 ,5,1,16.,24.0,0.,24.0,0.,24.0,0.,24.0
1979-07-06 04:21:23.000 ,1,1,3.,24.0,0.,24.0,0.,24.0,0.,24.0
1979-07-06 04:21:47.000 ,2,1,3.,24.0,1.,24.0,0.,24.0,0.,24.0
1979-07-06 04:22:11.000 ,6,1,8.,24.0,3.,24.0,0.,24.0,0.,24.0
1979-07-06 04:22:35.000 ,5,1,25.,24.0,9.,24.0,0.,24.0,0.,24.0
1979-07-06 04:22:59.000 ,1,1,6.,24.0,0.,24.0,0.,24.0,0.,24.0
1979-07-06 04:23:23.000 ,2,1,4.,24.0,0.,24.0,0.,24.0,0.,24.0
1979-07-06 04:23:47.000 ,6,1,7.,24.0,13.,24.0,0.,24.0,0.,24.0
1979-07-06 04:24:11.000 ,5,1,24.,24.0,11.,24.0,0.,24.0,0.,24.0
1979-07-06 04:24:35.000 ,1,1,4.,24.0,0.,24.0,0.,24.0,0.,24.0
1979-07-06 04:24:59.000 ,2,1,4.,24.0,2.,24.0,0.,24.0,0.,24.0
1979-07-06 04:25:23.000 ,6,1,15.,24.0,20.,24.0,0.,24.0,0.,24.0
1979-07-06 04:25:47.000 ,5,1,30.,24.0,18.,24.0,0.,24.0,0.,24.0
1979-07-06 04:26:11.000 ,1,1,4.,24.0,3.,24.0,0.,24.0,0.,24.0
1979-07-06 04:26:35.000 ,2,1,3.,24.0,2.,24.0,0.,24.0,0.,24.0
1979-07-06 04:26:59.000 ,6,1,13.,24.0,19.,24.0,0.,24.0,0.,24.0
1979-07-06 04:27:23.000 ,5,1,29.,24.0,31.,24.0,0.,24.0,0.,24.0
1979-07-06 04:27:47.000 ,1,1,7.,24.0,3.,24.0,0.,24.0,0.,24.0
1979-07-06 04:28:11.000 ,2,1,2.,24.0,0.,24.0,0.,24.0,0.,24.0
1979-07-06 04:28:35.000 ,6,1,16.,24.0,22.,24.0,0.,24.0,0.,24.0
1979-07-06 04:28:59.000 ,5,1,28.,24.0,37.,24.0,0.,24.0,0.,24.0
1979-07-06 04:29:23.000 ,1,1,2.,24.0,5.,24.0,0.,24.0,0.,24.0
1979-07-06 04:29:47.000 ,0,0,2.,24.0,3.,24.0,0.,24.0,0.,24.0
1979-07-06 04:30:11.000 ,0,0,13.,24.0,37.,24.0,0.,24.0,0.,24.0
1979-07-06 04:30:35.000 ,5,1,22.,24.0,25.,24.0,0.,24.0,0.,24.0
1979-07-06 04:30:59.000 ,5,0,33.,24.0,50.,24.0,0.,24.0,0.,24.0
1979-07-06 04:31:23.000 ,4,1,25.,24.0,39.,24.0,0.,24.0,0.,24.0
1979-07-06 04:31:47.000 ,4,0,11.,24.0,5.,24.0,0.,24.0,0.,24.0
1979-07-06 04:32:11.000 ,3,1,12.,24.0,4.,24.0,0.,24.0,0.,24.0
1979-07-06 04:32:35.000 ,3,0,4.,24.0,3.,24.0,0.,24.0,0.,24.0
1979-07-06 04:32:59.000 ,2,1,4.,24.0,4.,24.0,0.,24.0,0.,24.0
1979-07-06 04:33:23.000 ,2,0,6.,24.0,7.,24.0,0.,24.0,0.,24.0
1979-07-06 04:33:47.000 ,1,1,2.,24.0,1.,24.0,0.,24.0,0.,24.0
1979-07-06 04:34:11.000 ,1,0,3.,24.0,3.,24.0,0.,24.0,0.,24.0
1979-07-06 04:34:35.000 ,0,1,4.,24.0,2.,24.0,0.,24.0,0.,24.0
1979-07-06 04:34:59.000 ,0,0,9.,24.0,5.,24.0,0.,24.0,0.,24.0
1979-07-06 04:35:23.000 ,0,1,10.,24.0,6.,24.0,0.,24.0,0.,24.0
1979-07-06 04:35:47.000 ,0,0,4.,24.0,11.,24.0,0.,24.0,0.,24.0
1979-07-06 04:36:11.000 ,1,1,13.,24.0,7.,24.0,0.,24.0,0.,24.0
1979-07-06 04:36:35.000 ,1,0,6.,24.0,3.,24.0,0.,24.0,0.,24.0
1979-07-06 04:36:59.000 ,2,1,13.,24.0,7.,24.0,0.,24.0,0.,24.0
1979-07-06 04:37:23.000 ,2,0,10.,24.0,8.,24.0,0.,24.0,0.,24.0
1979-07-06 04:37:47.000 ,3,1,7.,24.0,4.,24.0,0.,24.0,0.,24.0
1979-07-06 04:38:11.000 ,3,0,16.,24.0,13.,24.0,0.,24.0,0.,24.0
1979-07-06 04:38:35.000 ,4,1,23.,24.0,7.,24.0,0.,24.0,0.,24.0
1979-07-06 04:38:59.000 ,4,0,22.,24.0,9.,24.0,0.,24.0,0.,24.0
1979-07-06 04:39:23.000 ,5,1,23.,24.0,9.,24.0,0.,24.0,0.,24.0
1979-07-06 04:39:47.000 ,5,0,35.,24.0,27.,24.0,0.,24.0,0.,24.0
1979-07-06 04:40:11.000 ,6,1,50.,24.0,27.,24.0,0.,24.0,0.,24.0
1979-07-06 04:40:35.000 ,6,0,98.,24.0,41.,24.0,0.,24.0,0.,24.0
1979-07-06 04:40:59.000 ,7,1,100.,24.0,27.,24.0,0.,24.0,0.,24.0
1979-07-06 04:41:23.000 ,7,0,35.,24.0,0.,24.0,0.,24.0,0.,24.0
1979-07-06 04:41:47.000 ,7,1,32.,24.0,1.,24.0,0.,24.0,0.,24.0
1979-07-06 04:42:11.000 ,7,0,39.,24.0,0.,24.0,0.,24.0,0.,24.0
1979-07-06 04:42:35.000 ,6,1,68.,24.0,24.,24.0,0.,24.0,0.,24.0
1979-07-06 04:42:59.000 ,6,0,164.,24.0,80.,24.0,0.,24.0,0.,24.0
1979-07-06 04:43:23.000 ,5,1,160.,24.0,64.,24.0,0.,24.0,0.,24.0
1979-07-06 04:43:47.000 ,5,0,60.,24.0,23.,24.0,0.,24.0,0.,24.0
1979-07-06 04:44:11.000 ,4,1,59.,24.0,31.,24.0,0.,24.0,0.,24.0
1979-07-06 04:44:35.000 ,4,0,37.,24.0,18.,24.0,0.,24.0,0.,24.0
1979-07-06 04:44:59.000 ,3,1,37.,24.0,20.,24.0,0.,24.0,0.,24.0
1979-07-06 04:45:23.000 ,3,0,23.,24.0,18.,24.0,0.,24.0,0.,24.0
1979-07-06 04:45:47.000 ,2,1,32.,24.0,12.,24.0,0.,24.0,0.,24.0
1979-07-06 04:46:11.000 ,2,0,23.,24.0,7.,24.0,0.,24.0,0.,24.0
1979-07-06 04:46:35.000 ,1,1,24.,24.0,11.,24.0,0.,24.0,0.,24.0
1979-07-06 04:46:59.000 ,1,0,23.,24.0,8.,24.0,0.,24.0,0.,24.0
1979-07-06 04:47:23.000 ,0,1,19.,24.0,9.,24.0,0.,24.0,0.,24.0
1979-07-06 04:47:47.000 ,0,0,12.,24.0,12.,24.0,0.,24.0,0.,24.0
1979-07-06 04:48:11.000 ,0,1,16.,24.0,10.,24.0,0.,24.0,0.,24.0
1979-07-06 04:48:35.000 ,0,0,17.,24.0,3.,24.0,0.,24.0,0.,24.0
1979-07-06 04:48:59.000 ,1,1,25.,24.0,7.,24.0,0.,24.0,0.,24.0
1979-07-06 04:49:23.000 ,1,0,16.,24.0,2.,24.0,0.,24.0,0.,24.0
1979-07-06 04:49:47.000 ,2,1,17.,24.0,4.,24.0,0.,24.0,0.,24.0
1979-07-06 04:50:11.000 ,2,0,21.,24.0,8.,24.0,0.,24.0,0.,24.0
1979-07-06 04:50:35.000 ,3,1,25.,24.0,9.,24.0,0.,24.0,0.,24.0
1979-07-06 04:50:59.000 ,3,0,35.,24.0,17.,24.0,0.,24.0,0.,24.0
1979-07-06 04:51:23.000 ,4,1,38.,24.0,19.,24.0,0.,24.0,0.,24.0
1979-07-06 04:51:47.000 ,4,0,36.,24.0,19.,24.0,0.,24.0,0.,24.0
1979-07-06 04:52:11.000 ,5,1,120.,24.0,35.,24.0,0.,24.0,0.,24.0
1979-07-06 04:52:35.000 ,5,0,272.,24.0,80.,24.0,0.,24.0,0.,24.0
1979-07-06 04:52:59.000 ,6,1,228.,24.0,72.,24.0,0.,24.0,0.,24.0
1979-07-06 04:53:23.000 ,6,0,200.,24.0,49.,24.0,0.,24.0,0.,24.0
1979-07-06 04:53:47.000 ,7,1,180.,24.0,51.,24.0,0.,24.0,0.,24.0
1979-07-06 04:54:11.000 ,7,0,31.,24.0,0.,24.0,0.,24.0,0.,24.0
1979-07-06 04:54:35.000 ,7,1,30.,24.0,0.,24.0,0.,24.0,0.,24.0
1979-07-06 04:54:59.000 ,7,0,31.,24.0,0.,24.0,0.,24.0,0.,24.0
1979-07-06 04:55:23.000 ,6,1,84.,24.0,11.,24.0,0.,24.0,0.,24.0
1979-07-06 04:55:47.000 ,6,0,244.,24.0,90.,24.0,0.,24.0,0.,24.0
1979-07-06 04:56:11.000 ,5,1,280.,24.0,64.,24.0,0.,24.0,0.,24.0
1979-07-06 04:56:35.000 ,5,0,248.,24.0,82.,24.0,0.,24.0,0.,24.0
1979-07-06 04:56:59.000 ,4,1,248.,24.0,66.,24.0,0.,24.0,0.,24.0
1979-07-06 04:57:23.000 ,4,0,68.,24.0,27.,24.0,0.,24.0,0.,24.0
1979-07-06 04:57:47.000 ,3,1,78.,24.0,26.,24.0,0.,24.0,0.,24.0
1979-07-06 04:58:11.000 ,3,0,57.,24.0,27.,24.0,0.,24.0,0.,24.0
1979-07-06 04:58:34.990 ,2,1,57.,24.0,27.,24.0,0.,24.0,0.,24.0
1979-07-06 04:58:58.990 ,2,0,42.,24.0,25.,24.0,0.,24.0,0.,24.0
1979-07-06 04:59:22.990 ,1,1,47.,24.0,28.,24.0,0.,24.0,0.,24.0
1979-07-06 04:59:46.990 ,1,0,46.,24.0,11.,24.0,0.,24.0,0.,24.0
1979-07-06 05:00:10.990 ,0,1,70.,24.0,20.,24.0,0.,24.0,0.,24.0
1979-07-06 05:00:34.990 ,0,0,114.,24.0,25.,24.0,0.,24.0,0.,24.0
1979-07-06 05:00:58.990 ,0,1,128.,24.0,29.,24.0,0.,24.0,0.,24.0
1979-07-06 05:01:22.990 ,0,0,140.,24.0,31.,24.0,0.,24.0,0.,24.0
1979-07-06 05:01:46.990 ,1,1,124.,24.0,32.,24.0,0.,24.0,0.,24.0
1979-07-06 05:02:10.990 ,1,0,78.,24.0,23.,24.0,0.,24.0,0.,24.0
1979-07-06 05:02:34.990 ,2,1,74.,24.0,25.,24.0,0.,24.0,0.,24.0
1979-07-06 05:02:58.990 ,2,0,122.,24.0,23.,24.0,0.,24.0,0.,24.0
1979-07-06 05:03:22.990 ,3,1,140.,24.0,38.,24.0,0.,24.0,0.,24.0
1979-07-06 05:03:46.990 ,3,0,160.,24.0,41.,24.0,0.,24.0,0.,24.0
1979-07-06 05:04:10.990 ,4,1,252.,24.0,53.,24.0,0.,24.0,0.,24.0
1979-07-06 05:04:34.990 ,4,0,440.,24.0,104.,24.0,0.,24.0,0.,24.0
1979-07-06 05:04:58.990 ,5,1,480.,24.0,86.,24.0,0.,24.0,0.,24.0
1979-07-06 05:05:22.990 ,5,0,608.,24.0,108.,24.0,0.,24.0,0.,24.0
1979-07-06 05:05:46.990 ,6,1,608.,24.0,140.,24.0,0.,24.0,0.,24.0
1979-07-06 05:06:10.990 ,6,0,720.,24.0,156.,24.0,0.,24.0,0.,24.0
1979-07-06 05:06:34.990 ,7,0,560.,24.0,108.,24.0,0.,24.0,0.,24.0
1979-07-06 05:06:58.990 ,7,0,30.,24.0,0.,24.0,0.,24.0,0.,24.0
1979-07-06 05:07:22.990 ,5,1,320.,24.0,74.,24.0,0.,24.0,0.,24.0
1979-07-06 05:07:46.990 ,1,1,204.,24.0,44.,24.0,0.,24.0,0.,24.0
1979-07-06 05:08:10.990 ,2,1,172.,24.0,46.,24.0,0.,24.0,0.,24.0
1979-07-06 05:08:34.990 ,6,1,528.,24.0,108.,24.0,0.,24.0,0.,24.0
1979-07-06 05:08:58.990 ,5,1,368.,24.0,63.,24.0,0.,24.0,0.,24.0
1979-07-06 05:09:22.990 ,1,1,220.,24.0,42.,24.0,0.,24.0,0.,24.0
1979-07-06 05:09:46.990 ,2,1,240.,24.0,46.,24.0,0.,24.0,0.,24.0
1979-07-06 05:10:10.990 ,6,1,472.,24.0,92.,24.0,0.,24.0,0.,24.0
1979-07-06 05:10:34.990 ,5,1,336.,24.0,54.,24.0,0.,24.0,0.,24.0
1979-07-06 05:10:58.990 ,1,1,280.,24.0,46.,24.0,0.,24.0,0.,24.0
1979-07-06 05:11:22.990 ,2,1,304.,24.0,58.,24.0,0.,24.0,0.,24.0
1979-07-06 05:11:46.990 ,6,1,496.,24.0,76.,24.0,0.,24.0,0.,24.0
1979-07-06 05:12:10.990 ,5,1,280.,24.0,54.,24.0,0.,24.0,0.,24.0
1979-07-06 05:12:34.990 ,1,1,304.,24.0,63.,24.0,0.,24.0,0.,24.0
1979-07-06 05:12:58.990 ,2,1,328.,24.0,56.,24.0,0.,24.0,0.,24.0
1979-07-06 05:13:22.990 ,6,1,504.,24.0,106.,24.0,0.,24.0,0.,24.0
1979-07-06 05:13:46.990 ,5,1,384.,24.0,62.,24.0,0.,24.0,0.,24.0
1979-07-06 05:14:10.990 ,1,1,352.,24.0,66.,24.0,0.,24.0,0.,24.0
1979-07-06 05:14:34.990 ,2,1,336.,24.0,53.,24.0,0.,24.0,0.,24.0
1979-07-06 05:14:58.990 ,6,1,624.,24.0,126.,24.0,0.,24.0,0.,24.0
1979-07-06 05:15:22.990 ,5,1,448.,24.0,76.,24.0,0.,24.0,0.,24.0
1979-07-06 05:15:46.990 ,1,1,440.,24.0,106.,24.0,0.,24.0,0.,24.0
1979-07-06 05:16:58.990 ,0,0,408.,24.0,80.,24.0,0.,24.0,0.,24.0
1979-07-06 05:17:22.990 ,1,1,544.,24.0,114.,24.0,0.,24.0,0.,24.0
1979-07-06 05:17:46.990 ,0,0,376.,24.0,70.,24.0,0.,24.0,0.,24.0
1979-07-06 05:18:10.990 ,0,0,944.,24.0,148.,24.0,0.,24.0,0.,24.0
1979-07-06 05:18:34.990 ,5,1,544.,24.0,102.,24.0,0.,24.0,0.,24.0
1979-07-06 05:18:58.990 ,5,0,1312.,24.0,264.,24.0,0.,24.0,0.,24.0
1979-07-06 05:19:22.990 ,4,1,1344.,24.0,248.,24.0,0.,24.0,0.,24.0
1979-07-06 05:19:46.990 ,4,0,1344.,24.0,204.,24.0,0.,24.0,0.,24.0
1979-07-06 05:20:10.990 ,3,1,1248.,24.0,208.,24.0,0.,24.0,0.,24.0
1979-07-06 05:20:34.990 ,3,0,704.,24.0,122.,24.0,0.,24.0,0.,24.0
1979-07-06 05:20:58.990 ,2,1,656.,24.0,108.,24.0,0.,24.0,0.,24.0
1979-07-06 05:21:22.990 ,2,0,368.,24.0,94.,24.0,0.,24.0,0.,24.0
1979-07-06 05:21:46.990 ,1,1,352.,24.0,86.,24.0,0.,24.0,0.,24.0
1979-07-06 05:22:10.990 ,1,0,336.,24.0,70.,24.0,0.,24.0,0.,24.0
1979-07-06 05:22:34.990 ,0,1,368.,24.0,60.,24.0,0.,24.0,0.,24.0
1979-07-06 05:22:58.990 ,0,0,384.,24.0,66.,24.0,0.,24.0,0.,24.0
1979-07-06 05:23:22.990 ,0,1,368.,24.0,70.,24.0,0.,24.0,0.,24.0
1979-07-06 05:23:46.990 ,0,0,400.,24.0,74.,24.0,0.,24.0,0.,24.0
1979-07-06 05:24:10.990 ,1,1,392.,24.0,54.,24.0,0.,24.0,0.,24.0
1979-07-06 05:24:34.990 ,1,0,320.,24.0,59.,24.0,0.,24.0,0.,24.0
1979-07-06 05:24:58.990 ,2,1,304.,24.0,66.,24.0,0.,24.0,0.,24.0
1979-07-06 05:25:22.990 ,2,0,360.,24.0,100.,24.0,0.,24.0,0.,24.0
1979-07-06 05:25:46.990 ,3,1,440.,24.0,74.,24.0,0.,24.0,0.,24.0
1979-07-06 05:26:10.990 ,3,0,640.,24.0,104.,24.0,0.,24.0,0.,24.0
1979-07-06 05:26:34.990 ,4,1,656.,24.0,110.,24.0,0.,24.0,0.,24.0
1979-07-06 05:26:58.990 ,4,0,816.,24.0,110.,24.0,0.,24.0,0.,24.0
1979-07-06 05:27:22.990 ,5,1,784.,24.0,128.,24.0,0.,24.0,0.,24.0
1979-07-06 05:27:46.990 ,5,0,704.,24.0,110.,24.0,0.,24.0,0.,24.0
1979-07-06 05:28:10.990 ,6,1,656.,24.0,120.,24.0,0.,24.0,0.,24.0
1979-07-06 05:28:34.990 ,6,0,720.,24.0,128.,24.0,0.,24.0,0.,24.0
1979-07-06 05:28:58.990 ,7,1,560.,24.0,68.,24.0,0.,24.0,0.,24.0
1979-07-06 05:29:22.990 ,7,0,32.,24.0,0.,24.0,0.,24.0,0.,24.0
1979-07-06 05:29:46.990 ,7,1,39.,24.0,0.,24.0,0.,24.0,0.,24.0
1979-07-06 05:30:10.990 ,7,0,30.,24.0,0.,24.0,0.,24.0,0.,24.0
1979-07-06 05:30:34.990 ,6,1,128.,24.0,15.,24.0,0.,24.0,0.,24.0
1979-07-06 05:30:58.990 ,6,0,528.,24.0,88.,24.0,0.,24.0,0.,24.0
1979-07-06 05:31:22.990 ,5,1,512.,24.0,68.,24.0,0.,24.0,0.,24.0
1979-07-06 05:31:46.990 ,5,0,456.,24.0,61.,24.0,0.,24.0,0.,24.0
1979-07-06 05:32:10.990 ,4,1,488.,24.0,80.,24.0,0.,24.0,0.,24.0